Friday Harbor, WA
on Thursday, January 10, 2013

Thursday
Previous Day Next Day
Daily Summary
 ActualAverageRecord
Temperature
Mean Temperature °F °F  
Max Temperature 39°F 43°F 50°F (2001)
Min Temperature 32°F 35°F 19°F (1998)
Degree Days
Heating Degree Days 30    
Moisture
Dew Point 32°F   
Average Humidity 86    
Maximum Humidity 100    
Minimum Humidity 67    
Precipitation
Precipitation 0.05 in in in ()
Wind
Wind Speed 4 mph   
Max Wind Speed 10 mph   
Max Gust Speed mph   
Visibility 8 miles   
Events Rain , Snow   
Averages and records for this station are not official NWS values.
Key: T is trace of precipitation, MM is missing value
Source: NWS Daily Summary
Seasonal Weather Averages
Time(PST)TemperatureDew PointHumidity Pressure Visibility Wind DirectionWind SpeedGust SpeedPrecipitationEvents Conditions
12:53 AM 39.9°F 35.1°F 83% 29.94 in 10.0 miles South 6.9 mph - N/A   Overcast
1:32 AM 39.2°F 35.6°F 87% 29.95 in 10.0 miles Variable 3.5 mph - N/A   Overcast
1:53 AM 39.0°F 35.1°F 86% 29.96 in 10.0 miles South 4.6 mph - N/A   Overcast
2:53 AM 37.0°F 34.0°F 89% 29.98 in 10.0 miles West 3.5 mph - N/A   Mostly Cloudy
3:53 AM 36.0°F 34.0°F 93% 29.99 in 10.0 miles Calm Calm - N/A   Overcast
4:53 AM 37.0°F 35.1°F 93% 30.00 in 10.0 miles Calm Calm - N/A   Overcast
5:29 AM 35.6°F 35.6°F 100% 30.00 in 10.0 miles Calm Calm - 0.00 in   Overcast
5:53 AM 37.0°F 35.1°F 93% 30.01 in 10.0 miles Calm Calm - 0.00 in   Overcast
6:53 AM 36.0°F 35.1°F 97% 30.03 in 10.0 miles Calm Calm - N/A   Overcast
7:53 AM 36.0°F 34.0°F 93% 30.06 in 10.0 miles Calm Calm - N/A   Overcast
8:53 AM 37.0°F 33.1°F 86% 30.07 in 10.0 miles Variable 3.5 mph - N/A   Overcast
9:53 AM 39.0°F 32.0°F 76% 30.08 in 10.0 miles Variable 3.5 mph - N/A   Mostly Cloudy
10:38 AM 39.2°F 33.8°F 81% 30.09 in 10.0 miles North 10.4 mph - 0.00 in Rain Light Rain
10:53 AM 37.0°F 34.0°F 89% 30.10 in 10.0 miles North 9.2 mph - 0.00 in Rain Light Rain
11:23 AM 33.8°F 32.0°F 93% 30.09 in 1.8 miles NW 6.9 mph - 0.01 in Snow Light Snow
11:32 AM 33.8°F 32.0°F 93% 30.09 in 2.0 miles Variable 4.6 mph - 0.02 in Snow Light Snow
11:53 AM 34.0°F 32.0°F 92% 30.09 in 2.5 miles Calm Calm - 0.03 in Snow Light Snow
12:09 PM 33.8°F 33.8°F 100% 30.08 in 3.0 miles Variable 4.6 mph - 0.01 in Rain Light Rain
12:39 PM 35.6°F 33.8°F 93% 30.08 in 2.5 miles NNE 9.2 mph - 0.02 in Rain Light Rain
12:53 PM 36.0°F 34.0°F 93% 30.09 in 10.0 miles Variable 4.6 mph - 0.02 in   Overcast
1:13 PM 35.6°F 30.2°F 81% 30.09 in 2.5 miles North 9.2 mph - 0.00 in Snow Light Snow
1:19 PM 35.6°F 32.0°F 87% 30.08 in 3.0 miles NNE 8.1 mph - 0.00 in Snow Light Snow
1:30 PM 37.4°F 32.0°F 81% 30.08 in 10.0 miles NNE 10.4 mph - 0.00 in   Overcast
1:53 PM 39.0°F 34.0°F 82% 30.09 in 10.0 miles North 5.8 mph - 0.00 in   Partly Cloudy
2:53 PM 39.0°F 32.0°F 76% 30.09 in 10.0 miles NNW 5.8 mph - N/A   Overcast
3:53 PM 39.0°F 30.0°F 70% 30.10 in 10.0 miles NNW 5.8 mph - N/A   Overcast
4:53 PM 37.0°F 28.9°F 73% 30.11 in 10.0 miles Variable 4.6 mph - N/A   Partly Cloudy
5:53 PM 34.0°F 30.0°F 85% 30.11 in 10.0 miles WNW 3.5 mph - N/A   Scattered Clouds
6:53 PM 34.0°F 30.0°F 85% 30.12 in 10.0 miles WNW 3.5 mph - N/A   Mostly Cloudy
7:53 PM 35.1°F 30.0°F 82% 30.12 in 10.0 miles WNW 3.5 mph - N/A   Mostly Cloudy
8:53 PM 32.0°F 30.0°F 92% 30.13 in 10.0 miles Calm Calm - N/A   Scattered Clouds
10:53 PM 34.0°F 25.0°F 70% 30.15 in 10.0 miles NNW 3.5 mph - N/A   Clear
11:53 PM 34.0°F 24.1°F 67% 30.16 in 10.0 miles NNW 4.6 mph - N/A   Clear
Moon Phase
Jan. 10 Jan. 11 Jan. 18 Jan. 26 Feb. 03
Sunrise:08:01 AM (PST) Moon Rise:06:46 AM (PST)1/10
Sunset:04:38 PM (PST) Moon Set:03:53 PM (PST)1/10

Copyright © 2014 The Weather Underground, Inc.